Humidity-temperature Sensor

Selected Measurement Type: Air Temperature

 
Air Temperature [°C]     6 entries per hour
Showing data from 11/18/2021 (00:00:00 Z) to 11/15/2021 (00:01:00 Z)
Previous Next [ Day | 3-Days | 7-Days ]
First Last
Prev [ Day | 3-Days | 7-Days ] Next
First Last

Start Time:     :
End Time:     :     
Time (in GMT) :00 :50 :40 :30 :20 :10
Previous Next [ Day | 3-Days | 7-Days ]
First Last
Prev [ Day | 3-Days | 7-Days ] Next
First Last


123 => good data
MM => data is determined as missing
-- => data not received/configured
Back to Top Back to Top
11/18/2021 00:00 to 23:10 22.59 22.61 22.60 22.54 22.46 22.42
11/17/2021 23:00 to 22:10 22.40 22.45 22.43 22.62 22.44 22.50
11/17/2021 22:00 to 21:10 22.50 22.53 22.51 22.61 22.41 22.49
11/17/2021 21:00 to 20:10 22.54 22.62 22.56 22.52 22.67 22.57
11/17/2021 20:00 to 19:10 22.63 22.65 22.85 22.56 22.39 22.33
11/17/2021 19:00 to 18:10 22.54 22.50 22.41 22.52 22.46 22.54
11/17/2021 18:00 to 17:10 22.56 22.44 22.43 22.47 22.41 22.41
11/17/2021 17:00 to 16:10 22.49 22.36 22.43 22.32 22.44 22.39
11/17/2021 16:00 to 15:10 22.46 22.32 22.40 22.41 22.39 22.36
11/17/2021 15:00 to 14:10 22.29 22.31 22.49 22.49 22.40 22.32
11/17/2021 14:00 to 13:10 22.33 22.21 22.06 22.21 21.95 21.93
11/17/2021 13:00 to 12:10 21.93 21.69 21.81 21.88 21.75 21.79
11/17/2021 12:00 to 11:10 21.90 21.79 21.77 21.82 21.79 21.90
11/17/2021 11:00 to 10:10 21.82 21.90 21.95 21.91 21.83 21.80
11/17/2021 10:00 to 9:10 21.87 21.86 21.86 21.84 21.89 21.94
11/17/2021 09:00 to 8:10 21.87 21.93 22.05 22.00 21.99 22.02
11/17/2021 08:00 to 7:10 22.06 22.17 22.24 22.20 22.15 22.11
11/17/2021 07:00 to 6:10 22.12 22.18 22.18 22.27 22.26 22.18
11/17/2021 06:00 to 5:10 22.40 22.26 22.26 22.33 22.32 22.42
11/17/2021 05:00 to 4:10 22.43 22.45 22.44 22.43 22.65 22.64
11/17/2021 04:00 to 3:10 22.50 22.56 22.46 22.63 22.49 22.49
11/17/2021 03:00 to 2:10 22.48 22.55 22.58 22.62 22.57 22.54
11/17/2021 02:00 to 1:10 22.47 22.47 22.53 22.55 22.64 22.51
11/17/2021 01:00 to 0:10 22.70 22.63 22.82 22.60 22.74 22.75
11/17/2021 00:00 to 23:10 22.85 22.89 22.98 22.78 22.87 22.69
11/16/2021 23:00 to 22:10 22.62 22.66 22.71 22.69 22.62 22.71
11/16/2021 22:00 to 21:10 22.60 22.69 22.64 22.62 22.80 22.64
11/16/2021 21:00 to 20:10 22.72 22.78 22.81 22.83 22.83 22.85
11/16/2021 20:00 to 19:10 22.78 22.76 22.79 22.74 22.71 22.59
11/16/2021 19:00 to 18:10 22.69 22.59 22.66 22.59 22.71 22.69
11/16/2021 18:00 to 17:10 22.89 22.89 22.65 22.68 22.79 22.95
11/16/2021 17:00 to 16:10 22.89 22.95 22.77 22.63 22.69 22.73
11/16/2021 16:00 to 15:10 22.66 22.73 22.69 22.67 22.80 22.57
11/16/2021 15:00 to 14:10 22.40 22.49 22.25 22.36 22.36 22.49
11/16/2021 14:00 to 13:10 22.74 22.60 22.45 22.41 22.51 22.41
11/16/2021 13:00 to 12:10 22.68 22.38 22.72 22.56 22.55 22.58
11/16/2021 12:00 to 11:10 22.55 22.57 22.43 22.20 22.48 22.62
11/16/2021 11:00 to 10:10 22.61 22.71 22.54 22.21 22.52 22.28
11/16/2021 10:00 to 9:10 22.38 22.31 22.40 22.28 22.24 22.17
11/16/2021 09:00 to 8:10 22.30 22.12 22.25 22.25 22.30 22.20
11/16/2021 08:00 to 7:10 22.31 22.35 22.28 22.41 22.29 22.34
11/16/2021 07:00 to 6:10 22.30 22.23 22.29 22.34 22.49 22.29
11/16/2021 06:00 to 5:10 22.26 22.41 22.34 22.38 22.34 22.44
11/16/2021 05:00 to 4:10 22.37 22.42 22.52 22.42 22.57 22.57
11/16/2021 04:00 to 3:10 22.48 22.41 22.53 22.53 22.59 22.59
11/16/2021 03:00 to 2:10 22.63 22.60 22.47 22.57 22.53 22.56
11/16/2021 02:00 to 1:10 22.49 22.48 22.44 22.48 22.60 22.55
11/16/2021 01:00 to 0:10 22.66 22.58 22.60 22.61 22.57 22.70
11/16/2021 00:00 to 23:10 22.74 22.89 22.77 22.82 22.94 22.78
11/15/2021 23:00 to 22:10 22.75 22.78 22.72 22.82 22.79 22.80
11/15/2021 22:00 to 21:10 22.77 22.73 22.76 22.73 22.69 22.78
11/15/2021 21:00 to 20:10 22.88 22.77 22.82 22.76 22.84 22.75
11/15/2021 20:00 to 19:10 22.83 22.82 22.78 22.71 22.82 22.67
11/15/2021 19:00 to 18:10 22.89 22.85 22.86 22.93 22.92 22.88
11/15/2021 18:00 to 17:10 23.03 22.88 23.06 22.97 22.92 22.75
11/15/2021 17:00 to 16:10 22.89 22.95 23.06 23.04 23.08 23.00
11/15/2021 16:00 to 15:10 23.05 23.17 23.20 23.04 23.18 22.94
11/15/2021 15:00 to 14:10 22.72 22.78 22.72 22.78 22.70 22.76
11/15/2021 14:00 to 13:10 22.63 22.62 22.66 22.49 22.60 22.49
11/15/2021 13:00 to 12:10 22.44 22.37 22.39 22.30 22.23 22.37
11/15/2021 12:00 to 11:10 22.32 22.16 22.16 22.24 22.36 22.21
11/15/2021 11:00 to 10:10 22.30 22.30 22.25 22.33 22.27 22.34
11/15/2021 10:00 to 9:10 22.30 22.28 22.38 22.37 22.37 22.22
11/15/2021 09:00 to 8:10 22.35 22.24 22.24 22.37 22.23 22.24
11/15/2021 08:00 to 7:10 22.23 22.33 22.27 22.31 22.46 22.34
11/15/2021 07:00 to 6:10 22.53 22.46 22.42 22.42 22.53 22.52
11/15/2021 06:00 to 5:10 22.50 22.58 22.61 22.63 22.63 22.71
11/15/2021 05:00 to 4:10 22.68 22.68 22.74 22.88 22.71 22.73
11/15/2021 04:00 to 3:10 22.71 22.82 22.81 22.72 22.66 22.67
11/15/2021 03:00 to 2:10 22.64 22.76 22.81 22.80 22.83 22.85
11/15/2021 02:00 to 1:10 22.89 22.84 22.86 22.92 22.86 22.95
11/15/2021 01:00 to 0:10 22.99 23.05 23.18 23.15 23.28 23.35